owner,sensor,date,latitude,longitude,air_temperature,qcFlag 
TABS,ioos:station:wmo:42045:1,2002-09-12T19:39:00Z,26.2168,-96.4998,29.4,11144222 
TABS,ioos:station:wmo:42045:1,2002-09-12T20:09:00Z,26.2168,-96.4998,29.2,11144222 
TABS,ioos:station:wmo:42045:1,2002-09-12T20:39:00Z,26.2168,-96.4998,29.2,11144222 
TABS,ioos:station:wmo:42045:1,2002-09-12T21:09:00Z,26.2168,-96.4998,29.2,11144222 
TABS,ioos:station:wmo:42045:1,2002-09-12T21:39:00Z,26.2168,-96.4998,29.2,11144222 
TABS,ioos:station:wmo:42045:1,2002-09-12T22:09:00Z,26.2168,-96.4998,29.4,11144222 
TABS,ioos:station:wmo:42045:1,2002-09-12T22:39:00Z,26.2168,-96.4998,29.3,11144222 
TABS,ioos:station:wmo:42045:1,2002-09-12T23:09:00Z,26.2168,-96.4998,29.3,11144222 
TABS,ioos:station:wmo:42045:1,2002-09-12T23:39:00Z,26.2168,-96.4998,29.3,11144222 
TABS,ioos:station:wmo:42045:1,2002-09-13T00:09:00Z,26.2168,-96.4998,29.4,11144222 
TABS,ioos:station:wmo:42045:1,2002-09-13T00:39:00Z,26.2168,-96.4998,29.2,11144222 
TABS,ioos:station:wmo:42045:1,2002-09-13T01:09:00Z,26.2168,-96.4998,29.2,11144222 
TABS,ioos:station:wmo:42045:1,2002-09-13T01:39:00Z,26.2168,-96.4998,29.2,11144222 
TABS,ioos:station:wmo:42045:1,2002-09-13T02:09:00Z,26.2168,-96.4998,29.2,11144222 
TABS,ioos:station:wmo:42045:1,2002-09-13T02:39:00Z,26.2168,-96.4998,29.2,11144222 
TABS,ioos:station:wmo:42045:1,2002-09-13T03:09:00Z,26.2168,-96.4998,29.2,11144222 
TABS,ioos:station:wmo:42045:1,2002-09-13T03:39:00Z,26.2168,-96.4998,29.2,11144222 
TABS,ioos:station:wmo:42045:1,2002-09-13T04:09:00Z,26.2168,-96.4998,29.1,11144222 
TABS,ioos:station:wmo:42045:1,2002-09-13T04:39:00Z,26.2168,-96.4998,29.2,11144222 
TABS,ioos:station:wmo:42045:1,2002-09-13T05:09:00Z,26.2168,-96.4998,29.1,11144222 
TABS,ioos:station:wmo:42045:1,2002-09-13T05:39:00Z,26.2168,-96.4998,29.1,11144222 
TABS,ioos:station:wmo:42045:1,2002-09-13T06:09:00Z,26.2168,-96.4998,29.0,11144222 
TABS,ioos:station:wmo:42045:1,2002-09-13T06:39:00Z,26.2168,-96.4998,29.0,11144222 
TABS,ioos:station:wmo:42045:1,2002-09-13T07:09:00Z,26.2168,-96.4998,28.9,11144222 
TABS,ioos:station:wmo:42045:1,2002-09-13T07:39:00Z,26.2168,-96.4998,28.9,11144222 
TABS,ioos:station:wmo:42045:1,2002-09-13T08:09:00Z,26.2168,-96.4998,28.8,11144222 
TABS,ioos:station:wmo:42045:1,2002-09-13T08:39:00Z,26.2168,-96.4998,28.7,11144222 
TABS,ioos:station:wmo:42045:1,2002-09-13T09:09:00Z,26.2168,-96.4998,28.7,11144222 
TABS,ioos:station:wmo:42045:1,2002-09-13T09:39:00Z,26.2168,-96.4998,28.6,11144222 
TABS,ioos:station:wmo:42045:1,2002-09-13T10:09:00Z,26.2168,-96.4998,28.4,11144222 
TABS,ioos:station:wmo:42045:1,2002-09-13T10:39:00Z,26.2168,-96.4998,28.2,11144222 
TABS,ioos:station:wmo:42045:1,2002-09-13T11:09:00Z,26.2168,-96.4998,28.2,11144222 
TABS,ioos:station:wmo:42045:1,2002-09-13T11:39:00Z,26.2168,-96.4998,28.1,11144222 
TABS,ioos:station:wmo:42045:1,2002-09-13T12:09:00Z,26.2168,-96.4998,28.2,11144222 
TABS,ioos:station:wmo:42045:1,2002-09-13T12:39:00Z,26.2168,-96.4998,28.2,11144222 
TABS,ioos:station:wmo:42045:1,2002-09-13T13:09:00Z,26.2168,-96.4998,28.4,11144222 
TABS,ioos:station:wmo:42045:1,2002-09-13T13:39:00Z,26.2168,-96.4998,28.8,11144222 
TABS,ioos:station:wmo:42045:1,2002-09-13T14:09:00Z,26.2168,-96.4998,29.4,11144222 
TABS,ioos:station:wmo:42045:1,2002-09-13T14:39:00Z,26.2168,-96.4998,29.9,11144222 
TABS,ioos:station:wmo:42045:1,2002-09-13T15:09:00Z,26.2168,-96.4998,30.0,11144222 
TABS,ioos:station:wmo:42045:1,2002-09-13T15:39:00Z,26.2168,-96.4998,29.9,11144222 
TABS,ioos:station:wmo:42045:1,2002-09-13T16:09:00Z,26.2168,-96.4998,29.7,11144222 
TABS,ioos:station:wmo:42045:1,2002-09-13T16:39:00Z,26.2168,-96.4998,29.6,11144222 
TABS,ioos:station:wmo:42045:1,2002-09-13T17:09:00Z,26.2168,-96.4998,29.6,11144222 
TABS,ioos:station:wmo:42045:1,2002-09-13T17:39:00Z,26.2168,-96.4998,29.5,11144222 
TABS,ioos:station:wmo:42045:1,2002-09-13T18:09:00Z,26.2168,-96.4998,29.5,11144222 
TABS,ioos:station:wmo:42045:1,2002-09-13T18:39:00Z,26.2168,-96.4998,29.5,11144222 
TABS,ioos:station:wmo:42045:1,2002-09-13T19:09:00Z,26.2168,-96.4998,29.5,11144222 
TABS,ioos:station:wmo:42045:1,2002-09-13T19:39:00Z,26.2168,-96.4998,29.6,11144222 
TABS,ioos:station:wmo:42045:1,2002-09-13T20:09:00Z,26.2168,-96.4998,29.7,11144222 
TABS,ioos:station:wmo:42045:1,2002-09-13T20:39:00Z,26.2168,-96.4998,29.9,11144222 
TABS,ioos:station:wmo:42045:1,2002-09-13T21:09:00Z,26.2168,-96.4998,29.9,11144222 
TABS,ioos:station:wmo:42045:1,2002-09-13T21:39:00Z,26.2168,-96.4998,29.9,11144222 
TABS,ioos:station:wmo:42045:1,2002-09-13T22:09:00Z,26.2168,-96.4998,30.0,11144222 
TABS,ioos:station:wmo:42045:1,2002-09-13T22:39:00Z,26.2168,-96.4998,30.1,11144222 
TABS,ioos:station:wmo:42045:1,2002-09-13T23:09:00Z,26.2168,-96.4998,30.0,11144222 
TABS,ioos:station:wmo:42045:1,2002-09-13T23:39:00Z,26.2168,-96.4998,29.9,11144222 
TABS,ioos:station:wmo:42045:1,2002-09-14T00:09:00Z,26.2168,-96.4998,29.7,11144222 
TABS,ioos:station:wmo:42045:1,2002-09-14T00:39:00Z,26.2168,-96.4998,29.5,11144222 
TABS,ioos:station:wmo:42045:1,2002-09-14T01:09:00Z,26.2168,-96.4998,29.4,11144222 
TABS,ioos:station:wmo:42045:1,2002-09-14T01:39:00Z,26.2168,-96.4998,29.4,11144222 
TABS,ioos:station:wmo:42045:1,2002-09-14T02:09:00Z,26.2168,-96.4998,29.4,11144222 
TABS,ioos:station:wmo:42045:1,2002-09-14T02:39:00Z,26.2168,-96.4998,29.3,11144222 
TABS,ioos:station:wmo:42045:1,2002-09-14T03:09:00Z,26.2168,-96.4998,29.2,11144222 
TABS,ioos:station:wmo:42045:1,2002-09-14T03:39:00Z,26.2168,-96.4998,29.2,11144222 
TABS,ioos:station:wmo:42045:1,2002-09-14T04:09:00Z,26.2168,-96.4998,29.1,11144222 
TABS,ioos:station:wmo:42045:1,2002-09-14T04:39:00Z,26.2168,-96.4998,29.0,11144222 
TABS,ioos:station:wmo:42045:1,2002-09-14T05:09:00Z,26.2168,-96.4998,28.8,11144222 
TABS,ioos:station:wmo:42045:1,2002-09-14T05:39:00Z,26.2168,-96.4998,28.8,11144222 
TABS,ioos:station:wmo:42045:1,2002-09-14T06:09:00Z,26.2168,-96.4998,28.9,11144222 
TABS,ioos:station:wmo:42045:1,2002-09-14T06:39:00Z,26.2168,-96.4998,29.1,11144222 
TABS,ioos:station:wmo:42045:1,2002-09-14T07:09:00Z,26.2168,-96.4998,29.1,11144222 
TABS,ioos:station:wmo:42045:1,2002-09-14T07:39:00Z,26.2168,-96.4998,29.0,11144222 
TABS,ioos:station:wmo:42045:1,2002-09-14T08:09:00Z,26.2168,-96.4998,29.0,11144222 
TABS,ioos:station:wmo:42045:1,2002-09-14T08:39:00Z,26.2168,-96.4998,29.0,11144222 
TABS,ioos:station:wmo:42045:1,2002-09-14T09:09:00Z,26.2168,-96.4998,29.0,11144222 
TABS,ioos:station:wmo:42045:1,2002-09-14T09:39:00Z,26.2168,-96.4998,29.0,11144222 
TABS,ioos:station:wmo:42045:1,2002-09-14T10:09:00Z,26.2168,-96.4998,28.9,11144222 
TABS,ioos:station:wmo:42045:1,2002-09-14T10:39:00Z,26.2168,-96.4998,28.9,11144222 
TABS,ioos:station:wmo:42045:1,2002-09-14T11:09:00Z,26.2168,-96.4998,28.9,11144222 
TABS,ioos:station:wmo:42045:1,2002-09-14T11:39:00Z,26.2168,-96.4998,28.9,11144222 
TABS,ioos:station:wmo:42045:1,2002-09-14T12:09:00Z,26.2168,-96.4998,28.9,11144222 
TABS,ioos:station:wmo:42045:1,2002-09-14T12:39:00Z,26.2168,-96.4998,29.0,11144222 
TABS,ioos:station:wmo:42045:1,2002-09-14T13:09:00Z,26.2168,-96.4998,29.1,11144222 
TABS,ioos:station:wmo:42045:1,2002-09-14T13:39:00Z,26.2168,-96.4998,29.2,11144222 
TABS,ioos:station:wmo:42045:1,2002-09-14T14:09:00Z,26.2168,-96.4998,29.3,11144222 
TABS,ioos:station:wmo:42045:1,2002-09-14T14:39:00Z,26.2168,-96.4998,29.5,11144222 
TABS,ioos:station:wmo:42045:1,2002-09-14T15:09:00Z,26.2168,-96.4998,29.6,11144222 
TABS,ioos:station:wmo:42045:1,2002-09-14T15:39:00Z,26.2168,-96.4998,29.6,11144222 
TABS,ioos:station:wmo:42045:1,2002-09-14T16:09:00Z,26.2168,-96.4998,29.4,11144222 
TABS,ioos:station:wmo:42045:1,2002-09-14T16:39:00Z,26.2168,-96.4998,28.6,11144222 
TABS,ioos:station:wmo:42045:1,2002-09-14T17:09:00Z,26.2168,-96.4998,29.1,11144222 
TABS,ioos:station:wmo:42045:1,2002-09-14T17:39:00Z,26.2168,-96.4998,29.3,11144222 
TABS,ioos:station:wmo:42045:1,2002-09-14T18:09:00Z,26.2168,-96.4998,29.3,11144222 
TABS,ioos:station:wmo:42045:1,2002-09-14T18:39:00Z,26.2168,-96.4998,29.4,11144222 
TABS,ioos:station:wmo:42045:1,2002-09-14T19:09:00Z,26.2168,-96.4998,29.4,11144222 
TABS,ioos:station:wmo:42045:1,2002-09-14T19:39:00Z,26.2168,-96.4998,29.5,11144222 
TABS,ioos:station:wmo:42045:1,2002-09-14T20:09:00Z,26.2168,-96.4998,29.5,11144222 
TABS,ioos:station:wmo:42045:1,2002-09-14T20:39:00Z,26.2168,-96.4998,29.4,11144222 
TABS,ioos:station:wmo:42045:1,2002-09-14T21:09:00Z,26.2168,-96.4998,29.4,11144222 
TABS,ioos:station:wmo:42045:1,2002-09-14T21:39:00Z,26.2168,-96.4998,30.0,11144222 
TABS,ioos:station:wmo:42045:1,2002-09-14T22:09:00Z,26.2168,-96.4998,30.2,11144222 
TABS,ioos:station:wmo:42045:1,2002-09-14T22:39:00Z,26.2168,-96.4998,30.0,11144222 
TABS,ioos:station:wmo:42045:1,2002-09-14T23:09:00Z,26.2168,-96.4998,30.0,11144222 
TABS,ioos:station:wmo:42045:1,2002-09-14T23:39:00Z,26.2168,-96.4998,30.0,11144222 
TABS,ioos:station:wmo:42045:1,2002-09-15T00:09:00Z,26.2168,-96.4998,29.6,11144222 
TABS,ioos:station:wmo:42045:1,2002-09-15T00:39:00Z,26.2168,-96.4998,29.2,11144222 
TABS,ioos:station:wmo:42045:1,2002-09-15T01:09:00Z,26.2168,-96.4998,28.8,11144222 
TABS,ioos:station:wmo:42045:1,2002-09-15T01:39:00Z,26.2168,-96.4998,28.7,11144222 
TABS,ioos:station:wmo:42045:1,2002-09-15T02:09:00Z,26.2168,-96.4998,28.7,11144222 
TABS,ioos:station:wmo:42045:1,2002-09-15T02:39:00Z,26.2168,-96.4998,29.1,11144222 
TABS,ioos:station:wmo:42045:1,2002-09-15T03:09:00Z,26.2168,-96.4998,29.1,11144222 
TABS,ioos:station:wmo:42045:1,2002-09-15T03:39:00Z,26.2168,-96.4998,29.2,11144222 
TABS,ioos:station:wmo:42045:1,2002-09-15T04:09:00Z,26.2168,-96.4998,29.1,11144222 
TABS,ioos:station:wmo:42045:1,2002-09-15T04:39:00Z,26.2168,-96.4998,29.4,11144222 
TABS,ioos:station:wmo:42045:1,2002-09-15T05:09:00Z,26.2168,-96.4998,29.3,11144222 
TABS,ioos:station:wmo:42045:1,2002-09-15T05:39:00Z,26.2168,-96.4998,29.2,11144222 
TABS,ioos:station:wmo:42045:1,2002-09-15T06:09:00Z,26.2168,-96.4998,29.2,11144222 
TABS,ioos:station:wmo:42045:1,2002-09-15T06:39:00Z,26.2168,-96.4998,29.3,11144222 
TABS,ioos:station:wmo:42045:1,2002-09-15T07:09:00Z,26.2168,-96.4998,27.8,11144222 
TABS,ioos:station:wmo:42045:1,2002-09-15T07:39:00Z,26.2168,-96.4998,27.6,11144222 
TABS,ioos:station:wmo:42045:1,2002-09-15T08:09:00Z,26.2168,-96.4998,28.5,11144222 
TABS,ioos:station:wmo:42045:1,2002-09-15T08:39:00Z,26.2168,-96.4998,28.5,11144222 
TABS,ioos:station:wmo:42045:1,2002-09-15T09:09:00Z,26.2168,-96.4998,28.2,11144222 
TABS,ioos:station:wmo:42045:1,2002-09-15T09:39:00Z,26.2168,-96.4998,29.0,11144222 
TABS,ioos:station:wmo:42045:1,2002-09-15T10:09:00Z,26.2168,-96.4998,28.8,11144222 
TABS,ioos:station:wmo:42045:1,2002-09-15T10:39:00Z,26.2168,-96.4998,29.0,11144222 
TABS,ioos:station:wmo:42045:1,2002-09-15T11:09:00Z,26.2168,-96.4998,29.1,11144222 
TABS,ioos:station:wmo:42045:1,2002-09-15T11:39:00Z,26.2168,-96.4998,29.2,11144222 
TABS,ioos:station:wmo:42045:1,2002-09-15T12:09:00Z,26.2168,-96.4998,29.2,11144222 
TABS,ioos:station:wmo:42045:1,2002-09-15T12:39:00Z,26.2168,-96.4998,29.4,11144222 
TABS,ioos:station:wmo:42045:1,2002-09-15T13:09:00Z,26.2168,-96.4998,29.4,11144222 
TABS,ioos:station:wmo:42045:1,2002-09-15T13:39:00Z,26.2168,-96.4998,29.5,11144222 
TABS,ioos:station:wmo:42045:1,2002-09-15T14:09:00Z,26.2168,-96.4998,29.6,11144222 
TABS,ioos:station:wmo:42045:1,2002-09-15T14:39:00Z,26.2168,-96.4998,29.7,11144222 
TABS,ioos:station:wmo:42045:1,2002-09-15T15:09:00Z,26.2168,-96.4998,29.7,11144222 
TABS,ioos:station:wmo:42045:1,2002-09-15T15:39:00Z,26.2168,-96.4998,29.7,11144222 
TABS,ioos:station:wmo:42045:1,2002-09-15T16:09:00Z,26.2168,-96.4998,29.5,11144222 
TABS,ioos:station:wmo:42045:1,2002-09-15T16:39:00Z,26.2168,-96.4998,29.7,11144222 
TABS,ioos:station:wmo:42045:1,2002-09-15T17:09:00Z,26.2168,-96.4998,29.7,11144222 
TABS,ioos:station:wmo:42045:1,2002-09-15T17:39:00Z,26.2168,-96.4998,29.7,11144222 
TABS,ioos:station:wmo:42045:1,2002-09-15T18:09:00Z,26.2168,-96.4998,29.7,11144222 
TABS,ioos:station:wmo:42045:1,2002-09-15T18:39:00Z,26.2168,-96.4998,29.8,11144222 
TABS,ioos:station:wmo:42045:1,2002-09-15T19:09:00Z,26.2168,-96.4998,29.8,11144222 
TABS,ioos:station:wmo:42045:1,2002-09-15T19:39:00Z,26.2168,-96.4998,29.8,11144222 
TABS,ioos:station:wmo:42045:1,2002-09-15T20:09:00Z,26.2168,-96.4998,30.0,11144222 
TABS,ioos:station:wmo:42045:1,2002-09-15T20:39:00Z,26.2168,-96.4998,30.3,11144222 
TABS,ioos:station:wmo:42045:1,2002-09-15T21:09:00Z,26.2168,-96.4998,30.4,11144222 
TABS,ioos:station:wmo:42045:1,2002-09-15T21:39:00Z,26.2168,-96.4998,30.2,11144222 
TABS,ioos:station:wmo:42045:1,2002-09-15T22:09:00Z,26.2168,-96.4998,28.7,11144222 
TABS,ioos:station:wmo:42045:1,2002-09-15T22:39:00Z,26.2168,-96.4998,29.1,11144222 
TABS,ioos:station:wmo:42045:1,2002-09-15T23:09:00Z,26.2168,-96.4998,29.0,11144222 
TABS,ioos:station:wmo:42045:1,2002-09-15T23:39:00Z,26.2168,-96.4998,28.8,11144222 
TABS,ioos:station:wmo:42045:1,2002-09-16T00:09:00Z,26.2168,-96.4998,28.3,11144222 
TABS,ioos:station:wmo:42045:1,2002-09-16T00:39:00Z,26.2168,-96.4998,28.0,11144222 
TABS,ioos:station:wmo:42045:1,2002-09-16T01:09:00Z,26.2168,-96.4998,27.9,11144222 
TABS,ioos:station:wmo:42045:1,2002-09-16T01:39:00Z,26.2168,-96.4998,27.4,11144222 
TABS,ioos:station:wmo:42045:1,2002-09-16T02:09:00Z,26.2168,-96.4998,27.6,11144222 
TABS,ioos:station:wmo:42045:1,2002-09-16T02:39:00Z,26.2168,-96.4998,28.0,11144222 
TABS,ioos:station:wmo:42045:1,2002-09-16T03:09:00Z,26.2168,-96.4998,28.1,11144222 
TABS,ioos:station:wmo:42045:1,2002-09-16T03:39:00Z,26.2168,-96.4998,28.4,11144222 
TABS,ioos:station:wmo:42045:1,2002-09-16T04:09:00Z,26.2168,-96.4998,27.3,11144222 
TABS,ioos:station:wmo:42045:1,2002-09-16T04:39:00Z,26.2168,-96.4998,27.9,11144222 
TABS,ioos:station:wmo:42045:1,2002-09-16T05:09:00Z,26.2168,-96.4998,27.2,11144222 
TABS,ioos:station:wmo:42045:1,2002-09-16T05:39:00Z,26.2168,-96.4998,28.5,11144222 
TABS,ioos:station:wmo:42045:1,2002-09-16T06:09:00Z,26.2168,-96.4998,28.5,11144222 
TABS,ioos:station:wmo:42045:1,2002-09-16T06:39:00Z,26.2168,-96.4998,27.6,11144222 
TABS,ioos:station:wmo:42045:1,2002-09-16T07:09:00Z,26.2168,-96.4998,28.1,11144222 
TABS,ioos:station:wmo:42045:1,2002-09-16T07:39:00Z,26.2168,-96.4998,28.1,11144222 
TABS,ioos:station:wmo:42045:1,2002-09-16T08:09:00Z,26.2168,-96.4998,28.5,11144222 
TABS,ioos:station:wmo:42045:1,2002-09-16T08:39:00Z,26.2168,-96.4998,28.6,11144222 
TABS,ioos:station:wmo:42045:1,2002-09-16T09:09:00Z,26.2168,-96.4998,28.6,11144222 
TABS,ioos:station:wmo:42045:1,2002-09-16T09:39:00Z,26.2168,-96.4998,28.6,11144222 
TABS,ioos:station:wmo:42045:1,2002-09-16T10:09:00Z,26.2168,-96.4998,29.1,11144222 
TABS,ioos:station:wmo:42045:1,2002-09-16T10:39:00Z,26.2168,-96.4998,29.3,11144222 
TABS,ioos:station:wmo:42045:1,2002-09-16T11:09:00Z,26.2168,-96.4998,29.3,11144222 
TABS,ioos:station:wmo:42045:1,2002-09-16T11:39:00Z,26.2168,-96.4998,29.3,11144222 
TABS,ioos:station:wmo:42045:1,2002-09-16T12:09:00Z,26.2168,-96.4998,29.1,11144222 
TABS,ioos:station:wmo:42045:1,2002-09-16T12:39:00Z,26.2168,-96.4998,29.2,11144222 
TABS,ioos:station:wmo:42045:1,2002-09-16T13:09:00Z,26.2168,-96.4998,29.6,11144222 
TABS,ioos:station:wmo:42045:1,2002-09-16T13:39:00Z,26.2168,-96.4998,29.4,11144222 
TABS,ioos:station:wmo:42045:1,2002-09-16T14:09:00Z,26.2168,-96.4998,29.2,11144222 
TABS,ioos:station:wmo:42045:1,2002-09-16T14:39:00Z,26.2168,-96.4998,28.4,11144222 
TABS,ioos:station:wmo:42045:1,2002-09-16T15:09:00Z,26.2168,-96.4998,27.5,11144222 
TABS,ioos:station:wmo:42045:1,2002-09-16T15:39:00Z,26.2168,-96.4998,27.9,11144222 
TABS,ioos:station:wmo:42045:1,2002-09-16T16:09:00Z,26.2168,-96.4998,28.0,11144222 
TABS,ioos:station:wmo:42045:1,2002-09-16T16:39:00Z,26.2168,-96.4998,27.8,11144222 
TABS,ioos:station:wmo:42045:1,2002-09-16T17:09:00Z,26.2168,-96.4998,27.9,11144222 
TABS,ioos:station:wmo:42045:1,2002-09-16T17:39:00Z,26.2168,-96.4998,27.7,11144222 
TABS,ioos:station:wmo:42045:1,2002-09-16T18:09:00Z,26.2168,-96.4998,27.7,11144222 
TABS,ioos:station:wmo:42045:1,2002-09-16T18:39:00Z,26.2168,-96.4998,27.9,11144222 
TABS,ioos:station:wmo:42045:1,2002-09-16T19:09:00Z,26.2168,-96.4998,27.7,11144222 
TABS,ioos:station:wmo:42045:1,2002-09-16T19:39:00Z,26.2168,-96.4998,27.7,11144222 
TABS,ioos:station:wmo:42045:1,2002-09-16T20:09:00Z,26.2168,-96.4998,28.1,11144222 
TABS,ioos:station:wmo:42045:1,2002-09-16T20:39:00Z,26.2168,-96.4998,28.5,11144222 
TABS,ioos:station:wmo:42045:1,2002-09-16T21:09:00Z,26.2168,-96.4998,28.4,11144222 
TABS,ioos:station:wmo:42045:1,2002-09-16T21:39:00Z,26.2168,-96.4998,28.8,11144222 
TABS,ioos:station:wmo:42045:1,2002-09-16T22:09:00Z,26.2168,-96.4998,28.5,11144222 
TABS,ioos:station:wmo:42045:1,2002-09-16T22:39:00Z,26.2168,-96.4998,28.3,11144222 
TABS,ioos:station:wmo:42045:1,2002-09-16T23:09:00Z,26.2168,-96.4998,27.9,11144222 
TABS,ioos:station:wmo:42045:1,2002-09-16T23:39:00Z,26.2168,-96.4998,28.0,11144222 
TABS,ioos:station:wmo:42045:1,2002-09-17T00:09:00Z,26.2168,-96.4998,28.2,11144222 
TABS,ioos:station:wmo:42045:1,2002-09-17T00:39:00Z,26.2168,-96.4998,28.4,11144222 
TABS,ioos:station:wmo:42045:1,2002-09-17T01:09:00Z,26.2168,-96.4998,28.1,11144222 
TABS,ioos:station:wmo:42045:1,2002-09-17T01:39:00Z,26.2168,-96.4998,28.1,11144222 
TABS,ioos:station:wmo:42045:1,2002-09-17T02:09:00Z,26.2168,-96.4998,28.1,11144222 
TABS,ioos:station:wmo:42045:1,2002-09-17T02:39:00Z,26.2168,-96.4998,28.1,11144222 
TABS,ioos:station:wmo:42045:1,2002-09-17T03:09:00Z,26.2168,-96.4998,28.1,11144222 
TABS,ioos:station:wmo:42045:1,2002-09-17T03:39:00Z,26.2168,-96.4998,28.1,11144222 
TABS,ioos:station:wmo:42045:1,2002-09-17T04:09:00Z,26.2168,-96.4998,28.1,11144222 
TABS,ioos:station:wmo:42045:1,2002-09-17T04:39:00Z,26.2168,-96.4998,28.3,11144222 
TABS,ioos:station:wmo:42045:1,2002-09-17T05:09:00Z,26.2168,-96.4998,28.4,11144222 
TABS,ioos:station:wmo:42045:1,2002-09-17T05:39:00Z,26.2168,-96.4998,28.4,11144222 
TABS,ioos:station:wmo:42045:1,2002-09-17T06:09:00Z,26.2168,-96.4998,28.4,11144222 
TABS,ioos:station:wmo:42045:1,2002-09-17T06:39:00Z,26.2168,-96.4998,28.5,11144222 
TABS,ioos:station:wmo:42045:1,2002-09-17T07:09:00Z,26.2168,-96.4998,28.6,11144222 
TABS,ioos:station:wmo:42045:1,2002-09-17T07:39:00Z,26.2168,-96.4998,28.6,11144222 
TABS,ioos:station:wmo:42045:1,2002-09-17T08:09:00Z,26.2168,-96.4998,28.6,11144222 
TABS,ioos:station:wmo:42045:1,2002-09-17T08:39:00Z,26.2168,-96.4998,28.7,11144222 
TABS,ioos:station:wmo:42045:1,2002-09-17T09:09:00Z,26.2168,-96.4998,28.7,11144222 
TABS,ioos:station:wmo:42045:1,2002-09-17T09:39:00Z,26.2168,-96.4998,28.7,11144222 
TABS,ioos:station:wmo:42045:1,2002-09-17T10:09:00Z,26.2168,-96.4998,28.8,11144222 
TABS,ioos:station:wmo:42045:1,2002-09-17T10:39:00Z,26.2168,-96.4998,28.9,11144222 
TABS,ioos:station:wmo:42045:1,2002-09-17T11:09:00Z,26.2168,-96.4998,29.0,11144222 
TABS,ioos:station:wmo:42045:1,2002-09-17T11:39:00Z,26.2168,-96.4998,29.0,11144222 
TABS,ioos:station:wmo:42045:1,2002-09-17T12:09:00Z,26.2168,-96.4998,28.9,11144222 
TABS,ioos:station:wmo:42045:1,2002-09-17T12:39:00Z,26.2168,-96.4998,28.9,11144222 
TABS,ioos:station:wmo:42045:1,2002-09-17T13:09:00Z,26.2168,-96.4998,29.1,11144222 
TABS,ioos:station:wmo:42045:1,2002-09-17T13:39:00Z,26.2168,-96.4998,29.2,11144222 
TABS,ioos:station:wmo:42045:1,2002-09-17T14:09:00Z,26.2168,-96.4998,29.1,11144222 
TABS,ioos:station:wmo:42045:1,2002-09-17T14:39:00Z,26.2168,-96.4998,28.9,11144222 
TABS,ioos:station:wmo:42045:1,2002-09-17T15:09:00Z,26.2168,-96.4998,28.9,11144222 
TABS,ioos:station:wmo:42045:1,2002-09-17T15:39:00Z,26.2168,-96.4998,29.1,11144222 
TABS,ioos:station:wmo:42045:1,2002-09-17T16:09:00Z,26.2168,-96.4998,29.0,11144222 
TABS,ioos:station:wmo:42045:1,2002-09-17T16:39:00Z,26.2168,-96.4998,28.9,11144222 
TABS,ioos:station:wmo:42045:1,2002-09-17T17:09:00Z,26.2168,-96.4998,28.9,11144222 
TABS,ioos:station:wmo:42045:1,2002-09-17T17:39:00Z,26.2168,-96.4998,28.9,11144222 
TABS,ioos:station:wmo:42045:1,2002-09-17T18:09:00Z,26.2168,-96.4998,29.0,11144222 
TABS,ioos:station:wmo:42045:1,2002-09-17T18:39:00Z,26.2168,-96.4998,29.1,11144222 
TABS,ioos:station:wmo:42045:1,2002-09-17T19:09:00Z,26.2168,-96.4998,29.2,11144222 
TABS,ioos:station:wmo:42045:1,2002-09-17T19:39:00Z,26.2168,-96.4998,29.3,11144222 
TABS,ioos:station:wmo:42045:1,2002-09-17T20:09:00Z,26.2168,-96.4998,29.5,11144222 
TABS,ioos:station:wmo:42045:1,2002-09-17T20:39:00Z,26.2168,-96.4998,29.5,11144222 
TABS,ioos:station:wmo:42045:1,2002-09-17T21:09:00Z,26.2168,-96.4998,29.5,11144222 
TABS,ioos:station:wmo:42045:1,2002-09-17T21:39:00Z,26.2168,-96.4998,29.5,11144222 
TABS,ioos:station:wmo:42045:1,2002-09-17T22:09:00Z,26.2168,-96.4998,29.6,11144222 
TABS,ioos:station:wmo:42045:1,2002-09-17T22:39:00Z,26.2168,-96.4998,29.5,11144222 
TABS,ioos:station:wmo:42045:1,2002-09-17T23:09:00Z,26.2168,-96.4998,29.6,11144222 
TABS,ioos:station:wmo:42045:1,2002-09-17T23:39:00Z,26.2168,-96.4998,29.4,11144222 
TABS,ioos:station:wmo:42045:1,2002-09-18T00:09:00Z,26.2168,-96.4998,29.2,11144222 
TABS,ioos:station:wmo:42045:1,2002-09-18T00:39:00Z,26.2168,-96.4998,29.1,11144222 
TABS,ioos:station:wmo:42045:1,2002-09-18T01:09:00Z,26.2168,-96.4998,29.2,11144222 
TABS,ioos:station:wmo:42045:1,2002-09-18T01:39:00Z,26.2168,-96.4998,29.2,11144222 
TABS,ioos:station:wmo:42045:1,2002-09-18T02:09:00Z,26.2168,-96.4998,29.2,11144222 
TABS,ioos:station:wmo:42045:1,2002-09-18T02:39:00Z,26.2168,-96.4998,29.2,11144222 
TABS,ioos:station:wmo:42045:1,2002-09-18T03:09:00Z,26.2168,-96.4998,29.3,11144222 
TABS,ioos:station:wmo:42045:1,2002-09-18T03:39:00Z,26.2168,-96.4998,29.3,11144222 
TABS,ioos:station:wmo:42045:1,2002-09-18T04:09:00Z,26.2168,-96.4998,29.3,11144222 
TABS,ioos:station:wmo:42045:1,2002-09-18T04:39:00Z,26.2168,-96.4998,29.3,11144222 
TABS,ioos:station:wmo:42045:1,2002-09-18T05:09:00Z,26.2168,-96.4998,29.2,11144222 
TABS,ioos:station:wmo:42045:1,2002-09-18T05:39:00Z,26.2168,-96.4998,29.2,11144222 
TABS,ioos:station:wmo:42045:1,2002-09-18T06:09:00Z,26.2168,-96.4998,29.2,11144222 
TABS,ioos:station:wmo:42045:1,2002-09-18T06:39:00Z,26.2168,-96.4998,29.2,11144222 
TABS,ioos:station:wmo:42045:1,2002-09-18T07:09:00Z,26.2168,-96.4998,29.2,11144222 
TABS,ioos:station:wmo:42045:1,2002-09-18T07:39:00Z,26.2168,-96.4998,29.2,11144222 
TABS,ioos:station:wmo:42045:1,2002-09-18T08:09:00Z,26.2168,-96.4998,29.2,11144222 
TABS,ioos:station:wmo:42045:1,2002-09-18T08:39:00Z,26.2168,-96.4998,29.2,11144222 
TABS,ioos:station:wmo:42045:1,2002-09-18T09:09:00Z,26.2168,-96.4998,29.2,11144222 
TABS,ioos:station:wmo:42045:1,2002-09-18T09:39:00Z,26.2168,-96.4998,29.2,11144222 
TABS,ioos:station:wmo:42045:1,2002-09-18T10:09:00Z,26.2168,-96.4998,29.1,11144222 
TABS,ioos:station:wmo:42045:1,2002-09-18T10:39:00Z,26.2168,-96.4998,29.1,11144222 
TABS,ioos:station:wmo:42045:1,2002-09-18T11:09:00Z,26.2168,-96.4998,29.1,11144222 
TABS,ioos:station:wmo:42045:1,2002-09-18T11:39:00Z,26.2168,-96.4998,29.0,11144222 
TABS,ioos:station:wmo:42045:1,2002-09-18T12:09:00Z,26.2168,-96.4998,29.0,11144222 
TABS,ioos:station:wmo:42045:1,2002-09-18T12:39:00Z,26.2168,-96.4998,29.0,11144222 
TABS,ioos:station:wmo:42045:1,2002-09-18T13:09:00Z,26.2168,-96.4998,29.1,11144222 
TABS,ioos:station:wmo:42045:1,2002-09-18T13:39:00Z,26.2168,-96.4998,29.1,11144222 
TABS,ioos:station:wmo:42045:1,2002-09-18T14:09:00Z,26.2168,-96.4998,29.2,11144222 
TABS,ioos:station:wmo:42045:1,2002-09-18T14:39:00Z,26.2168,-96.4998,29.2,11144222 
TABS,ioos:station:wmo:42045:1,2002-09-18T15:09:00Z,26.2168,-96.4998,29.2,11144222 
TABS,ioos:station:wmo:42045:1,2002-09-18T15:39:00Z,26.2168,-96.4998,29.3,11144222 
TABS,ioos:station:wmo:42045:1,2002-09-18T16:09:00Z,26.2168,-96.4998,29.3,11144222 
TABS,ioos:station:wmo:42045:1,2002-09-18T16:39:00Z,26.2168,-96.4998,29.3,11144222 
TABS,ioos:station:wmo:42045:1,2002-09-18T17:09:00Z,26.2168,-96.4998,29.4,11144222 
TABS,ioos:station:wmo:42045:1,2002-09-18T17:39:00Z,26.2168,-96.4998,29.3,11144222 
TABS,ioos:station:wmo:42045:1,2002-09-18T18:09:00Z,26.2168,-96.4998,29.4,11144222 
TABS,ioos:station:wmo:42045:1,2002-09-18T18:39:00Z,26.2168,-96.4998,29.5,11144222 
TABS,ioos:station:wmo:42045:1,2002-09-18T19:09:00Z,26.2168,-96.4998,29.4,11144222 